CW6213 Weather Reports


time (UTC)temp
C
wind
direction
speed
KPH
gust
KPH
rain 1hr
cm
rain 24hr
cm
rain mn
cm
humidity
%
barometer
mb
20260505041532 20 291 3.2 3.2 0.00 0.00 0.00 59 1009.8
20260505041029 20 303 0.0 1.6 0.00 0.00 0.00 58 1009.9
20260505040527 20 51 3.2 8.0 0.00 0.00 0.00 58 1009.9
20260505040024 20 296 4.8 4.8 0.00 0.00 0.00 58 1009.7
20260505035520 20 341 6.4 8.0 0.00 0.00 0.00 57 1009.6
20260505035016 20 288 6.4 9.7 0.00 0.00 0.00 58 1009.7
20260505034513 20 302 8.0 9.7 0.00 0.00 0.00 59 1009.6
20260505034010 20 353 6.4 11.3 0.00 0.00 0.00 58 1009.9
20260505033507 20 287 1.6 3.2 0.00 0.00 0.00 60 1009.6
20260505033005 20 29 1.6 3.2 0.00 0.00 0.00 59 1009.5
20260505032502 20 287 9.7 12.9 0.00 0.00 0.00 59 1009.4
20260505031959 20 287 6.4 8.0 0.00 0.00 0.00 58 1009.5
20260505031455 20 323 0.0 1.6 0.00 0.00 0.00 59 1009.5
20260505030952 20 287 1.6 3.2 0.00 0.00 0.00 59 1009.5
20260505030449 20 358 0.0 1.6 0.00 0.00 0.00 59 1009.6
20260505025944 20 294 1.6 3.2 0.00 0.00 0.00 60 1009.3
20260505025441 20 295 1.6 1.6 0.00 0.00 0.00 60 1009.4
20260505024940 20 296 0.0 0.0 0.00 0.00 0.00 60 1009.5
20260505024437 20 296 3.2 3.2 0.00 0.00 0.00 59 1009.5
20260505023934 20 299 4.8 4.8 0.00 0.00 0.00 59 1009.5
20260505023431 20 302 1.6 3.2 0.00 0.00 0.00 61 1009.4
20260505022928 20 316 3.2 4.8 0.00 0.00 0.00 61 1009.5
20260505022426 20 319 4.8 8.0 0.00 0.00 0.00 60 1009.5
20260505021923 20 323 3.2 3.2 0.00 0.00 0.00 61 1009.4
20260505021419 20 323 1.6 1.6 0.00 0.00 0.00 61 1009.5
20260505020915 20 324 0.0 0.0 0.00 0.00 0.00 62 1009.5
20260505020410 19 328 0.0 1.6 0.00 0.00 0.00 63 1009.3
20260505015908 18 328 1.6 1.6 0.00 0.00 0.00 66 1009.3
20260505015405 18 328 0.0 0.0 0.00 0.00 0.00 67 1009.4
20260505014902 18 328 0.0 0.0 0.00 0.00 0.00 65 1009.4
20260505014359 19 328 0.0 0.0 0.00 0.00 0.00 64 1009.1
20260505013855 20 328 0.0 0.0 0.00 0.00 0.00 63 1009.3
20260505013352 20 328 0.0 1.6 0.00 0.00 0.00 61 1009.2
20260505012851 20 328 1.6 1.6 0.00 0.00 0.00 60 1009.2
20260505012349 20 328 0.0 0.0 0.00 0.00 0.00 61 1009.4
20260505011844 18 330 1.6 1.6 0.00 0.00 0.00 66 1009.2
20260505011341 19 330 0.0 0.0 0.00 0.00 0.00 68 1009.0
20260505010837 20 330 0.0 0.0 0.00 0.00 0.00 65 1009.2
20260505010333 20 330 0.0 0.0 0.00 0.00 0.00 60 1009.0
20260505005830 20 330 0.0 0.0 0.00 0.00 0.00 59 1009.3
20260505005327 21 330 0.0 0.0 0.00 0.00 0.00 57 1009.2
20260505004825 21 330 0.0 0.0 0.00 0.00 0.00 56 1009.0
20260505004320 22 330 1.6 1.6 0.00 0.00 0.00 55 1009.2
20260505003818 22 330 1.6 3.2 0.00 0.00 0.00 53 1009.5
20260505003315 22 286 3.2 3.2 0.00 0.00 0.00 54 1009.1
20260505002811 22 292 1.6 1.6 0.00 0.00 0.00 54 1009.2
20260505002308 21 29 0.0 0.0 0.00 0.00 0.00 56 1009.3
20260505001807 22 290 0.0 0.0 0.00 0.00 0.00 55 1009.1
20260505001303 22 290 0.0 0.0 0.00 0.00 0.00 55 1009.3
20260505000800 22 290 0.0 0.0 0.00 0.00 0.00 53 1009.0
20260505000258 22 290 1.6 1.6 0.00 0.00 0.00 53 1009.0
20260504235754 23 289 0.0 0.0 0.00 0.00 0.00 52 1008.9
20260504235250 23 290 0.0 0.0 0.00 0.00 0.00 51 1008.9
20260504234748 23 290 3.2 3.2 0.00 0.00 0.00 49 1009.1
20260504234245 23 286 4.8 4.8 0.00 0.00 0.00 49 1009.2
20260504233742 23 291 4.8 4.8 0.00 0.00 0.00 48 1009.3
20260504233237 23 295 4.8 4.8 0.00 0.00 0.00 48 1009.3
20260504232735 23 286 6.4 9.7 0.00 0.00 0.00 48 1009.4
20260504232231 23 286 8.0 9.7 0.00 0.00 0.00 48 1009.4
20260504231728 23 327 3.2 4.8 0.00 0.00 0.00 47 1009.3
20260504231225 24 286 9.7 12.9 0.00 0.00 0.00 46 1009.2
20260504230721 24 22 8.0 9.7 0.00 0.00 0.00 46 1009.3
20260504230220 25 286 8.0 11.3 0.00 0.00 0.00 45 1009.0
20260504225718 25 330 1.6 1.6 0.00 0.00 0.00 46 1009.3
20260504225214 25 286 4.8 8.0 0.00 0.00 0.00 47 1009.0
20260504224711 25 290 3.2 3.2 0.00 0.00 0.00 48 1009.0
20260504224209 25 286 4.8 4.8 0.00 0.00 0.00 47 1009.1
20260504223705 25 286 3.2 4.8 0.00 0.00 0.00 47 1009.2
20260504223200 25 286 6.4 11.3 0.00 0.00 0.00 45 1009.2
20260504222658 25 304 8.0 9.7 0.00 0.00 0.00 47 1009.1
20260504222154 25 286 6.4 8.0 0.00 0.00 0.00 46 1009.4
20260504221652 25 286 6.4 8.0 0.00 0.00 0.00 47 1009.4
20260504221149 25 18 8.0 12.9 0.00 0.00 0.00 48 1009.3
20260504220645 25 286 3.2 4.8 0.00 0.00 0.00 50 1009.5
20260504220143 25 286 4.8 8.0 0.00 0.00 0.00 48 1009.4
20260504215639 25 286 6.4 8.0 0.00 0.00 0.00 47 1009.3
20260504215136 25 286 3.2 4.8 0.00 0.00 0.00 46 1009.4
20260504214632 25 1 4.8 8.0 0.00 0.00 0.00 48 1009.6
20260504214128 25 316 4.8 9.7 0.00 0.00 0.00 47 1009.6
20260504213625 24 333 6.4 9.7 0.00 0.00 0.00 47 1009.5
20260504213122 25 291 8.0 9.7 0.00 0.00 0.00 47 1009.5
20260504212618 25 286 11.3 12.9 0.00 0.00 0.00 48 1009.5
20260504212115 26 316 9.7 12.9 0.00 0.00 0.00 48 1009.5
20260504211612 25 287 6.4 9.7 0.00 0.00 0.00 48 1009.7
20260504211109 25 286 4.8 8.0 0.00 0.00 0.00 49 1009.8
20260504210607 25 354 4.8 4.8 0.00 0.00 0.00 52 1009.7
20260504205601 25 288 8.0 9.7 0.00 0.00 0.00 54 1010.0
20260504205058 24 286 1.6 3.2 0.00 0.00 0.00 54 1010.0
20260504204556 24 305 3.2 4.8 0.00 0.00 0.00 54 1010.2
20260504204055 25 24 3.2 4.8 0.00 0.00 0.00 54 1010.1
20260504203553 25 304 4.8 4.8 0.00 0.00 0.00 53 1010.2
20260504203050 25 291 11.3 14.5 0.00 0.00 0.00 53 1010.4
20260504202545 24 329 4.8 4.8 0.00 0.00 0.00 55 1010.3
20260504202042 24 311 9.7 12.9 0.00 0.00 0.00 55 1010.3
20260504201539 23 296 11.3 14.5 0.00 0.00 0.00 58 1010.5
20260504201037 23 294 9.7 12.9 0.00 0.00 0.00 55 1010.4
20260504200533 23 349 4.8 11.3 0.00 0.00 0.00 56 1010.2
20260504200030 23 315 3.2 3.2 0.00 0.00 0.00 57 1010.6
20260504195526 23 331 4.8 4.8 0.00 0.00 0.00 55 1010.5
20260504195023 23 8 6.4 11.3 0.00 0.00 0.00 56 1010.6
20260504194519 23 297 11.3 12.9 0.00 0.00 0.00 55 1010.6
20260504194015 22 286 6.4 8.0 0.00 0.00 0.00 56 1010.6
20260504193512 22 295 11.3 14.5 0.00 0.00 0.00 57 1010.6
20260504193011 22 319 6.4 9.7 0.00 0.00 0.00 58 1010.8
20260504192509 22 286 11.3 16.1 0.00 0.00 0.00 58 1010.7
20260504192007 22 286 9.7 14.5 0.00 0.00 0.00 60 1010.9
20260504191504 22 293 4.8 8.0 0.00 0.00 0.00 59 1010.7
20260504190959 21 295 9.7 11.3 0.00 0.00 0.00 58 1011.1
20260504190455 21 310 8.0 11.3 0.00 0.00 0.00 60 1010.9
20260504185952 21 18 6.4 9.7 0.00 0.00 0.00 58 1011.1
20260504185449 21 34 8.0 11.3 0.00 0.00 0.00 58 1011.1
20260504184945 20 297 8.0 11.3 0.00 0.00 0.00 61 1011.0
20260504184441 20 287 6.4 11.3 0.00 0.00 0.00 63 1011.2
20260504183937 19 289 3.2 3.2 0.00 0.00 0.00 66 1011.2
20260504183434 18 294 4.8 4.8 0.00 0.00 0.00 67 1011.7
20260504182933 18 291 8.0 11.3 0.00 0.00 0.00 66 1011.4
20260504182429 18 292 4.8 4.8 0.00 0.00 0.00 69 1011.8
20260504181926 18 287 1.6 3.2 0.00 0.00 0.00 65 1011.3
20260504181423 19 287 6.4 8.0 0.00 0.00 0.00 61 1012.0
20260504180922 19 287 4.8 4.8 0.00 0.00 0.00 61 1012.8
20260504180420 20 287 9.7 12.9 0.00 0.00 0.00 58 1012.8
20260504175918 20 287 6.4 8.0 0.00 0.00 0.00 58 1012.7
20260504175415 20 286 6.4 11.3 0.00 0.00 0.00 59 1012.4
20260504174913 20 286 8.0 11.3 0.00 0.00 0.00 57 1012.4
20260504174410 21 351 4.8 8.0 0.00 0.00 0.00 57 1011.9
20260504173907 21 292 3.2 3.2 0.00 0.00 0.00 58 1012.1
20260504173403 21 287 11.3 14.5 0.00 0.00 0.00 55 1011.8
20260504172901 21 301 9.7 12.9 0.00 0.00 0.00 57 1011.5
20260504172357 21 286 1.6 4.8 0.00 0.00 0.00 59 1011.7
20260504171853 20 304 4.8 4.8 0.00 0.00 0.00 57 1011.8
20260504171351 21 286 6.4 9.7 0.00 0.00 0.00 59 1011.7
20260504170848 20 293 8.0 12.9 0.00 0.00 0.00 59 1011.8
20260504170344 20 7 9.7 11.3 0.00 0.00 0.00 60 1012.0
20260504160303 18 329 3.2 8.0 0.00 0.00 0.00 64 1012.6
20260504150728 16 287 6.4 11.3 0.00 0.00 0.00 71 1013.5
20260504150225 16 287 0.0 1.6 0.00 0.00 0.00 72 1013.7
20260504141154 14 331 8.0 11.3 0.00 0.00 0.00 75 1014.0
20260504140651 14 287 9.7 11.3 0.00 0.00 0.00 76 1014.0
20260504140146 14 300 8.0 11.3 0.00 0.00 0.00 76 1014.2
20260504130614 12 287 11.3 16.1 0.00 0.00 0.00 76 1014.4
20260504130111 12 290 8.0 12.9 0.00 0.00 0.00 75 1014.5
20260504110503 10 301 1.6 3.2 0.00 0.00 0.00 71 1014.0
20260504100419 9 41 0.0 1.6 0.00 0.00 0.00 73 1013.8
20260504081812 8 38 0.0 0.0 0.00 0.00 0.00 79 1014.5
20260504081309 7 38 0.0 0.0 0.00 0.00 0.00 80 1014.1
20260504080805 7 38 0.0 0.0 0.00 0.00 0.00 80 1014.2
20260504080301 7 38 0.0 0.0 0.00 0.00 0.00 80 1014.2
20260504070229 8 38 0.0 0.0 0.00 0.00 0.00 77 1014.4
20260504060149 11 343 0.0 1.6 0.00 0.00 0.00 63 1015.2
20260504050618 12 309 1.6 1.6 0.00 0.00 0.00 55 1015.8
20260504050115 12 302 1.6 1.6 0.00 0.00 0.00 57 1015.8
20260504045612 12 339 0.0 0.0 0.00 0.00 0.00 59 1015.8
20260504045107 12 288 3.2 4.8 0.00 0.00 0.00 58 1015.1
20260504044605 12 299 6.4 8.0 0.00 0.00 0.00 59 1015.2
20260504044101 12 287 6.4 8.0 0.00 0.00 0.00 60 1015.4
20260504043559 11 290 6.4 9.7 0.00 0.00 0.00 62 1015.3
20260504043055 11 312 1.6 1.6 0.00 0.00 0.00 74 1015.7
20260504042552 11 311 1.6 1.6 0.00 0.00 0.00 78 1016.0
20260504042049 11 357 0.0 0.0 0.00 0.00 0.00 76 1016.0